Weather History for KSUS - February, 2014

Change the Weather History Date:

Thursday, February 13, 2014

  Actual Average (KSTL) Record (KSTL)
Temperature  
Mean Temperature 26 °F 36 °F  
Max Temperature 46 °F 44 °F 83 °F (1962)
Min Temperature 7 °F 27 °F -18 °F (1905)
Degree Days  
Heating Degree Days 38 29  
Month to date heating degree days 400  
Since 1 July heating degree days 3194  
Cooling Degree Days 0 0  
Month to date cooling degree days 0  
Year to date cooling degree days 0  
Moisture  
Dew Point 19 °F    
Average Humidity 68    
Maximum Humidity 84    
Minimum Humidity 47    
Precipitation  
Precipitation 0.00 in 0.08 in 1.40 in (1874)
Month to date precipitation 1.04  
Year to date precipitation 3.44  
Snow  
Snow 0.00 in 0.10 in 11.70 in (1914)
Month to date snowfall 2.1  
Since 1 July snowfall 12.8  
Snow Depth -    
Sea Level Pressure  
Sea Level Pressure 29.87 in    
Wind  
Wind Speed 4 mph (WSW)    
Max Wind Speed 16 mph    
Max Gust Speed 23 mph    
Visibility 10 miles    
Events      
T = Trace of Precipitation, MM = Missing Value Source: NWS Daily Summary

Daily Weather History Graph

Daily Weather History Graph

Search for Another Location

Airport or City:

Trip Planner

Search our weather history database for the weather conditions in past years. The results will help you decide how hot, cold, wet, or windy it might be!

Date:

Astronomy

Feb. 13, 2014 Rise Set
Actual Time 6:55 AM CST 5:38 PM CST
Civil Twilight 6:28 AM CST 6:05 PM CST
Nautical Twilight 5:57 AM CST 6:36 PM CST
Astronomical Twilight 5:26 AM CST 7:07 PM CST
Moon 4:46 PM CST (2/13) 5:49 AM CST (2/13)
Length of Visible Light 11h 37m
Length of Day
10h 42m
Waxing Gibbous, 99% of the Moon is Illuminated
Feb 13
Waxing Gibbous
Feb 14
Full
Feb 22
Last Quarter
Mar 1
New
Mar 8
First Quarter

Hourly Weather History & Observations

Time (CST) Temp. Windchill Dew Point Humidity Pressure Visibility Wind Dir Wind Speed Gust Speed Precip Events Conditions
12:54 AM 12.0 °F - 7.0 °F 80% 30.05 in 9.0 mi Calm Calm - N/A   Clear
1:54 AM 10.0 °F - 5.0 °F 80% 30.02 in 10.0 mi Calm Calm - N/A   Clear
2:54 AM 9.0 °F - 5.0 °F 84% 30.01 in 10.0 mi Calm Calm - N/A   Clear
3:54 AM 7.0 °F - 3.0 °F 84% 30.01 in 10.0 mi Calm Calm - N/A   Clear
4:54 AM 8.1 °F - 3.9 °F 83% 29.99 in 10.0 mi Calm Calm - N/A   Clear
5:54 AM 10.9 °F - 7.0 °F 84% 29.96 in 9.0 mi Calm Calm - N/A   Clear
6:54 AM 12.9 °F - 8.1 °F 81% 29.96 in 8.0 mi Calm Calm - N/A   Mostly Cloudy
7:54 AM 14.0 °F 8.2 °F 9.0 °F 80% 29.98 in 7.0 mi SW 3.5 mph - N/A   Mostly Cloudy
8:54 AM 21.0 °F - 15.1 °F 78% 29.94 in 9.0 mi Calm Calm - N/A   Clear
9:54 AM 30.0 °F - 12.9 °F 49% 29.92 in 10.0 mi Calm Calm - N/A   Partly Cloudy
10:54 AM 36.0 °F 26.3 °F 19.0 °F 50% 29.89 in 10.0 mi WSW 16.1 mph 19.6 mph N/A   Partly Cloudy
11:54 AM 39.0 °F 32.8 °F 23.0 °F 53% 29.86 in 10.0 mi West 9.2 mph - N/A   Scattered Clouds
12:54 PM 43.0 °F 36.4 °F 25.0 °F 49% 29.81 in 10.0 mi WSW 12.7 mph 23.0 mph N/A   Clear
1:54 PM 46.0 °F 40.6 °F 27.0 °F 47% 29.76 in 10.0 mi WSW 11.5 mph - N/A   Clear
2:54 PM 46.9 °F - 28.0 °F 48% 29.74 in 10.0 mi West 15.0 mph 19.6 mph N/A   Clear
3:54 PM 46.9 °F - 28.0 °F 48% 29.73 in 10.0 mi WSW 11.5 mph - N/A   Clear
4:54 PM 45.0 °F 40.6 °F 28.0 °F 52% 29.74 in 10.0 mi West 8.1 mph - N/A   Clear
5:54 PM 39.0 °F 33.4 °F 28.0 °F 65% 29.76 in 10.0 mi WSW 8.1 mph - N/A   Clear
6:54 PM 39.9 °F 35.8 °F 28.0 °F 63% 29.77 in 10.0 mi West 5.8 mph - N/A   Clear
7:54 PM 37.9 °F 32.1 °F 28.0 °F 68% 29.78 in 10.0 mi WSW 8.1 mph - N/A   Clear
8:54 PM 37.0 °F 30.4 °F 28.9 °F 73% 29.79 in 10.0 mi WSW 9.2 mph - N/A   Clear
9:54 PM 37.0 °F 29.8 °F 28.9 °F 73% 29.78 in 10.0 mi WSW 10.4 mph - N/A   Clear
10:54 PM 36.0 °F 29.0 °F 28.9 °F 76% 29.78 in 10.0 mi West 9.2 mph - N/A   Clear
11:54 PM 35.1 °F 28.6 °F 28.9 °F 78% 29.78 in 10.0 mi WSW 8.1 mph - N/A   Clear